Location: Владивосток
(43.1151°N, 131.8856°E)
Time: 00:46:40
(UTC+10:00)

FO-29 - Pass Details

Date: 02 May 2024
Orbit: 801 x 1320 km, 98.6° (Epoch: 19 May)

Event Time Altitude Azimuth Distance (km) Brightness Sun altitude
Rises 01:13:29 0° 28° (NNE) 4,308 13.7 -31.5°
Reaches altitude 10° 01:17:38 10° 49° (NE) 3,354 12.7 -31.5°
Maximum altitude 01:22:11 16° 85° (E) 2,888 12.0 -31.5°
Enters shadow 01:24:49 14° 107° (ESE) 3,035 11.9 -31.4°
